Main page
METAR-TAF:

METAR-TAF

Airports :

Beaver Island Airport

Beaver Island, Michigan, United States

latitude: 45-41-32N, longitude: 085-33-59W, elevation: 204 m

Current weather observation

The report was made 17 minutes ago, at 09:55 UTC
Calm wind
Temperature 8°C
Humidity 93%
Pressure 1022 hPa
Visibility: 16.1 km
Clear sky

METAR: KSJX 150955Z AUTO 00000KT 10SM CLR 08/07 A3018 RMK AO2 T00790074

Time: 06:12 (10:12 UTC)


TAF: missing

Weather observations and forecasts of more than 4000 airports (METAR and TAF reports).

The available stations are represented by yellow and red dots on the map.

Hover mouse over dot to see the name of the station.

Then click to see weather observations and forecasts.

To change the map : click on the green buttons with a black cross to zoom in, on the green button with a dash to zoom out, or on the green arrows for adjacent maps.


METAR-TAF: